TimeMST,TemperatureF,Dew PointF,Humidity,Sea Level PressureIn,VisibilityMPH,Wind Direction,Wind SpeedMPH,Gust SpeedMPH,PrecipitationIn,Events,Conditions,WindDirDegrees,DateUTC
12:53 AM,21.9,17.1,82,30.14,10.0,SW,12.7,-,N/A,,Mostly Cloudy,230,2012-02-26 07:53:00
1:53 AM,23.0,17.1,78,30.15,10.0,SW,11.5,-,N/A,,Overcast,220,2012-02-26 08:53:00
2:35 AM,21.2,15.8,80,30.07,10.0,SW,13.8,-,N/A,,Scattered Clouds,230,2012-02-26 09:35:00
2:53 AM,21.9,16.0,78,30.15,10.0,SW,12.7,20.7,N/A,,Mostly Cloudy,230,2012-02-26 09:53:00
3:53 AM,21.9,14.0,72,30.16,10.0,SW,16.1,-,N/A,,Clear,230,2012-02-26 10:53:00
4:53 AM,21.9,14.0,72,30.19,10.0,SW,16.1,-,N/A,,Partly Cloudy,230,2012-02-26 11:53:00
5:53 AM,21.0,12.9,71,30.21,10.0,SW,12.7,-,N/A,,Clear,220,2012-02-26 12:53:00
6:53 AM,19.4,12.2,74,30.11,10.0,SW,12.7,18.4,N/A,,Scattered Clouds,220,2012-02-26 13:53:00
7:53 AM,21.0,12.9,71,30.25,10.0,SSW,13.8,-,N/A,,Scattered Clouds,200,2012-02-26 14:53:00
8:53 AM,25.0,14.0,63,30.26,10.0,SW,16.1,25.3,N/A,,Scattered Clouds,220,2012-02-26 15:53:00
9:53 AM,27.0,12.9,56,30.26,10.0,SW,21.9,28.8,N/A,,Scattered Clouds,230,2012-02-26 16:53:00
10:53 AM,28.9,12.9,51,30.24,10.0,SW,19.6,25.3,N/A,,Scattered Clouds,220,2012-02-26 17:53:00
11:53 AM,30.0,10.0,43,30.23,10.0,SW,19.6,25.3,N/A,,Mostly Cloudy,230,2012-02-26 18:53:00
12:53 PM,30.0,8.1,40,30.22,10.0,SW,13.8,-,N/A,,Mostly Cloudy,230,2012-02-26 19:53:00
1:53 PM,30.0,7.0,38,30.19,10.0,WSW,12.7,20.7,N/A,,Mostly Cloudy,250,2012-02-26 20:53:00
2:53 PM,30.9,9.0,40,30.17,10.0,West,11.5,-,N/A,,Mostly Cloudy,260,2012-02-26 21:53:00
3:53 PM,32.0,7.0,35,30.15,10.0,South,8.1,17.3,N/A,,Scattered Clouds,190,2012-02-26 22:53:00
4:53 PM,32.0,8.1,37,30.14,10.0,South,8.1,-,N/A,,Scattered Clouds,170,2012-02-26 23:53:00
5:53 PM,30.0,10.0,43,30.12,10.0,South,6.9,-,N/A,,Partly Cloudy,170,2012-02-27 00:53:00
6:53 PM,26.1,10.9,53,30.14,10.0,SSE,8.1,-,N/A,,Clear,150,2012-02-27 01:53:00
7:53 PM,21.0,12.0,68,30.15,10.0,SSE,8.1,-,N/A,,Clear,150,2012-02-27 02:53:00
8:53 PM,24.1,12.0,60,30.11,10.0,ESE,3.5,-,N/A,,Clear,110,2012-02-27 03:53:00
9:53 PM,21.9,12.9,68,30.09,10.0,ENE,6.9,-,N/A,,Clear,70,2012-02-27 04:53:00
10:53 PM,24.1,12.0,60,30.05,10.0,ENE,5.8,-,N/A,,Clear,70,2012-02-27 05:53:00
11:53 PM,21.9,12.9,68,30.03,10.0,North,5.8,-,N/A,,Clear,10,2012-02-27 06:53:00